Dewpoint
23 10 5 4 1 1 -1 -1 2 -4 -5 0 4 6 8 12 12 12 13 15 15 16 17 18 18 18 18 18 18 19 18 18 17 17 15 13 12 10 9 8 8 9 9 9
12 7 3 -2 0 1 -0 1 -1 -1 -3 6 8 10 8 9 10 10 11 12 14 16 16 16 17 18 19 19 19 19 18 18 19 18 17 16 14 12 11 10 9 9 8 8
13 4 7 -3 -2 -1 -1 0 0 -7 -0 6 4 6 7 8 9 9 10 12 13 14 15 16 16 17 16 17 18 17 17 17 18 18 18 17 16 14 11 9 9 9 8 8
12 8 3 -4 5 0 -1 1 3 2 3 5 5 7 10 11 8 8 10 11 13 14 15 15 16 16 17 17 16 16 16 16 16 16 15 15 15 13 12 10 9 8 7 6
7 -8 -6 -2 -0 -1 -3 -4 2 1 4 6 7 7 8 9 9 9 10 11 12 14 14 15 15 15 15 14 14 14 13 12 12 13 12 12 11 11 11 11 9 7 5 4
-1 -6 -11 -5 3 8 6 -8 1 3 2 2 -1 -6 -1 5 7 5 8 9 9 11 11 12 12 13 13 12 11 10 10 10 11 10 9 8 8 8 8 9 9 6 5 4
-3 -11 -8 0 4 7 -8 -9 -0 3 1 -1 -3 -0 3 2 1 5 4 4 5 6 6 7 9 9 9 10 9 11 11 11 10 8 8 7 6 5 5 5 7 6 7 7
-6 -10 -13 1 -1 -8 -4 -2 -1 1 0 -2 -1 1 -1 -2 -0 -1 1 1 2 4 3 4 7 7 6 6 9 10 10 9 9 8 7 7 3 3 3 3 2 3 3 4
-13 -10 -4 -0 -3 -2 -3 -3 0 0 -2 -1 0 -2 -3 -2 -3 -2 -2 -5 -5 -1 1 -1 -1 3 2 4 5 6 6 5 6 7 7 5 1 -1 -4 -6 -1 -1 1 0
-12 -9 -10 -7 -2 -2 -4 -5 -0 -3 -1 -1 -3 -2 -2 -2 -4 -2 -6 -8 -5 -1 -6 -5 -3 -1 -0 1 3 3 1 2 3 2 3 -2 2 2 -1 -2 -2 -2 -2 -1
-24 -21 -13 -15 -9 -10 -5 -2 -2 -2 -2 -2 -2 -3 -3 -2 -5 -2 -4 -6 -2 -1 -4 -5 -4 -2 -1 2 -1 3 3 6 6 7 4 3 2 1 2 3 3 1 1 1
-21 -22 -15 -12 -12 -10 -9 -5 -3 -3 -3 -1 -2 -3 -3 -3 -4 -1 -3 1 -4 -4 -4 -3 -3 -2 1 1 1 -0 -0 3 6 6 8 8 5 3 12 12 14 16 18 12
-11 -17 -15 -9 -12 -18 -13 -8 -4 -3 -5 -5 -5 -5 -4 -4 -4 3 -2 -4 -4 -4 -3 -3 -2 -2 -0 0 -0 -0 -1 1 4 6 3 3 5 6 3 6 10 10 11 12
-19 -16 -15 -20 -9 -11 -14 -6 -4 -9 -11 -11 -11 -8 -8 -8 -5 -6 -7 -7 -6 -4 -4 -3 -3 -3 -1 -1 -1 0 2 10 6 6 3 4 3 4 4 4 2 2 7 9
-12 -14 -8 -9 -9 -11 -13 -14 -11 -10 -11 -12 -12 -12 -12 -12 -10 -9 -8 -7 -6 -7 -9 -7 -6 -5 -2 -2 -1 -1 2 4 4 5 5 5 6 6 4 3 2 2 2 5
-12 -12 -9 -14 -9 -6 -8 -8 -9 -8 -7 -9 -9 -10 -10 -10 -9 -7 -7 -8 -10 -6 -6 -6 -5 -4 -2 -3 -1 2 2 10 9 9 9 6 5 5 4 5 4 2 2 2
-12 -6 -5 -4 -4 -6 -8 -7 -6 -5 -5 -4 -5 -5 -6 -7 -4 -6 -6 -6 -8 -7 -5 -5 -5 -3 -2 1 2 3 3 4 11 6 6 7 7 5 4 4 4 4 3 4
-8 -7 -7 -7 -8 -6 -4 -3 -2 -2 -3 -3 -2 -2 -3 -4 -4 -4 -4 -3 -4 -3 -3 -3 -4 -2 5 4 2 5 4 6 6 6 5 5 4 5 5 6 5 4 3 5
-2 -2 -1 -1 -2 -2 -2 -2 -2 -2 -2 -2 -2 -3 -3 -1 -1 -2 -2 -2 -4 -4 -5 -3 4 7 3 4 7 10 8 6 6 5 6 8 7 8 7 5 3 3 3 4
1 1 1 0 -0 -1 -1 -2 -2 -3 -2 -2 -1 -2 -2 -2 -3 -1 -2 -3 -3 -3 -2 -1 6 1 1 1 11 2 0 -1 1 2 2 3 4 5 5 8 8 6 5 7
0 0 -1 -1 -2 -1 -1 -2 -4 -4 -3 -1 -1 -2 -2 -2 -2 -3 -3 -6 -5 -3 1 4 2 -3 -3 8 5 2 1 0 -1 -1 -0 1 1 1 4 4 5 5 5 5
-4 -5 -4 -4 -4 -4 -3 -3 -3 -2 -2 -3 -2 -2 -2 -3 -3 -3 -4 -5 -6 6 2 4 -2 4 8 8 0 0 1 0 -1 -2 -3 -2 -0 1 5 6 5 4 5 3
-1 -2 -0 -1 -2 -2 -2 -3 -3 -3 -6 -4 -3 -2 -2 -2 -2 -5 -7 -6 2 3 6 -3 5 9 13 -0 0 1 1 0 0 -1 -4 -4 -3 1 1 2 2 1 -2 -1
0 1 0 1 -1 -3 -4 -3 -2 -2 -5 -4 -2 -1 -1 -3 -4 -4 -4 2 5 5 4 2 6 11 12 1 0 -0 -0 -1 -1 0 -1 3 -2 -8 -8 -6 -4 -3 -1 2
2 2 -3 -5 -4 -2 -1 -0 -3 -2 -3 -2 -2 -2 -2 -2 -2 -2 -2 -1 4 3 -0 5 9 9 2 0 -1 -1 1 2 -0 2 0 -5 -6 -8 -9 -8 -8 -7 -8 -12
4 3 3 2 1 -0 -1 -1 -2 -2 -1 -1 -2 -3 -4 -1 -2 -2 -4 1 -1 1 -3 -4 -5 -2 -2 -3 -1 -0 -1 -2 -2 -2 1 1 -1 -6 -8 -9 -10 -10 -9 -9
6 11 7 4 3 2 0 0 2 -1 -0 -1 -3 -3 -1 -2 -3 -1 0 -5 -5 -5 -4 -5 -6 -4 -3 -3 -2 -4 -3 -1 1 1 0 -2 -3 -5 -8 -11 -11 -12 -12 -13
Lifted_Index
2 2 3 2 2 3 3 3 3 3 5 9 14 16 18 19 19 19 19 20 21 21 22 22 22 22 22 22 22 22 22 22 23 23 23 22 22 22 22 22 22 22 23 23
2 2 3 2 3 3 4 4 4 4 7 13 17 18 19 19 20 19 20 21 21 22 22 22 22 22 22 22 22 22 22 22 22 22 22 22 22 22 22 22 23 23 23 23
2 2 3 4 6 7 7 8 8 8 12 16 19 19 20 20 20 20 20 21 22 22 22 23 23 23 23 23 23 23 22 22 22 22 22 22 22 22 22 22 23 23 23 23
2 2 3 7 11 12 11 12 13 14 15 18 19 19 20 21 21 21 21 22 22 23 23 24 24 24 24 24 24 23 23 23 23 23 23 22 22 22 22 23 23 23 23 24
2 2 4 9 14 15 13 13 15 17 17 18 18 18 19 21 22 22 22 23 24 24 25 25 25 25 25 25 24 24 24 24 24 24 23 23 23 23 23 23 23 23 23 24
3 3 5 10 15 16 13 12 15 18 18 18 18 17 19 21 23 23 24 24 24 25 25 25 25 25 25 24 24 24 24 24 24 24 24 24 23 23 23 23 23 23 23 23
4 4 6 12 15 15 12 13 16 18 18 18 18 19 20 22 23 23 23 24 24 24 24 24 24 24 24 24 24 24 24 24 24 24 24 24 24 23 23 23 23 23 23 22
6 6 8 13 15 14 14 15 17 18 18 19 19 20 21 21 22 22 22 23 23 23 23 24 24 24 24 23 23 24 24 23 23 23 23 23 23 23 23 23 23 23 22 22
9 9 12 14 15 16 17 17 17 18 18 18 18 19 19 20 20 21 21 22 22 22 22 22 23 23 23 23 23 23 23 23 23 23 23 22 22 23 23 23 22 22 22 21
11 12 13 15 16 16 16 16 17 17 17 17 17 17 18 18 19 19 20 20 21 21 20 21 21 21 22 22 22 22 22 22 22 21 21 21 21 21 21 21 21 21 21 20
11 12 13 14 15 15 15 15 16 16 16 16 16 16 16 17 17 17 18 18 19 18 18 18 19 19 19 20 20 20 20 19 19 19 19 19 19 19 19 19 19 19 19 18
11 12 13 13 14 15 14 14 15 15 15 15 15 15 15 15 16 16 16 17 17 17 17 17 17 17 17 18 18 18 18 18 18 17 17 17 17 17 17 17 17 17 17 16
12 13 14 14 14 15 14 14 14 14 14 14 15 15 15 15 15 15 15 16 16 16 16 16 16 16 16 17 17 17 17 16 16 16 16 16 16 16 16 16 16 15 15 15
14 14 14 14 14 14 14 14 14 14 14 14 14 14 14 14 14 14 14 15 15 15 15 15 15 15 15 16 16 16 16 15 15 15 15 15 15 15 15 15 14 14 14 14
14 14 14 13 13 13 13 13 13 13 13 13 13 13 13 13 13 13 14 14 14 14 14 14 14 14 14 14 14 14 14 14 13 13 13 13 14 14 14 14 14 13 13 13
12 12 13 13 13 13 13 13 12 12 12 12 12 12 13 13 13 12 13 13 13 13 13 13 13 13 13 13 13 13 12 12 12 12 12 12 13 13 13 13 13 13 13 13
11 11 12 12 12 12 13 13 13 12 12 12 12 13 13 12 12 12 12 12 12 12 13 13 13 12 12 12 12 11 11 11 11 11 11 12 12 12 12 12 12 12 12 12
12 12 12 12 12 12 12 13 13 13 13 13 13 13 12 12 11 11 12 12 12 12 13 13 12 11 11 11 11 11 11 11 11 11 11 11 11 11 11 11 11 11 12 12
13 13 13 13 13 13 13 13 13 13 13 14 13 13 12 12 12 12 12 12 12 12 12 12 12 11 11 11 10 10 11 11 11 11 11 11 10 10 10 10 10 10 11 11
12 12 12 12 13 13 13 13 13 14 14 14 14 13 13 13 13 13 13 13 13 13 13 12 12 11 11 10 10 11 11 11 11 11 11 11 10 10 10 10 10 10 10 11
11 11 12 12 12 13 13 14 14 14 14 14 14 14 13 13 13 14 13 13 14 14 13 13 12 12 11 10 10 11 11 11 12 12 12 11 11 10 10 10 10 10 10 11
10 11 11 12 12 12 13 13 14 14 14 14 14 14 14 14 14 14 14 14 14 14 13 13 12 11 11 10 10 11 11 11 12 12 12 12 12 11 11 10 10 11 11 11
10 10 11 12 12 12 12 13 13 13 14 14 14 14 14 14 14 13 13 14 14 14 13 12 12 11 10 10 10 11 11 11 11 12 12 12 12 12 11 11 11 11 11 12
9 10 10 11 12 12 12 12 13 13 14 14 14 15 15 14 14 14 14 14 13 13 12 12 11 11 10 10 10 10 10 11 11 11 12 12 12 12 12 12 12 12 12 12
9 9 10 10 11 11 11 12 12 13 13 13 14 15 15 15 14 14 14 14 13 12 12 11 11 11 10 10 10 10 10 11 11 11 12 12 12 12 12 12 12 12 12 13
9 9 9 10 10 11 11 12 12 12 12 13 13 14 14 15 15 14 14 14 13 12 12 11 11 11 10 10 10 10 10 10 11 11 12 12 12 12 12 12 12 12 13 13
9 9 9 9 10 11 11 11 11 12 12 12 13 14 14 14 14 14 14 14 13 12 12 11 11 11 10 10 10 10 10 10 11 11 12 12 12 12 12 12 12 12 13 13